707  
ASGM40 PGUM 222212  
RWRGUM  
WEATHER ROUNDUP FOR THE MARIANAS  
NATIONAL WEATHER SERVICE TIYAN GU  
800 AM CHST SAT SEP 23 2017  
 
GUZ001>004-222300-  
MARIANA ISLANDS-  
 
CITY SKY/WX TMP DP RH WIND PRES REMARKS
 
GUAM AIRPORT MOSUNNY 84 81 89 E13 29.90R HX 98  
ANDERSEN AFB PTSUNNY 82 79 89 E12 29.91R HX 93  
ROTA AIRPORT PTSUNNY 81 77 89 E14 29.90R  
TINIAN AP MOSUNNY 84 79 84 E12 29.87R HX 96  
SAIPAN AP PTSUNNY 86 81 84 E13 29.88R HX 102  
 

 
 
 
 
CLICK HERE TO GO TO PREVIOUS BULLETINS.

The Nexlab GU Page Main Text Page